Weather Roundup
Issued by NWS Chicago, IL

Home | Current Version | Previous Version | Graphics & Text | Print | Product List | Glossary On
Versions: 1 2 3 4 5 6 7 8 9 10 11 12 13 14 15 16 17 18 19 20 21 22 23 24 25 26 27 28 29 30 31 32 33 34 35 36 37 38 39 40 41 42 43 44 45 46 47 48 49 50
034
NZUS59 KLOT 290804
HRRLOT

CHICAGO AREA WEATHER ROUNDUP
NATIONAL WEATHER SERVICE CHICAGO/ROMEOVILLE IL
300 AM CDT SAT JUL 29 2017

NOTE: "FAIR" INDICATES FEW OR NO CLOUDS BELOW 12,000 FEET WITH NO
SIGNIFICANT WEATHER AND/OR OBSTRUCTIONS TO VISIBILITY.

* THESE STATIONS ARE NOT UNDER NWS QUALITY CONTROL. THEY ALSO MAY NOT
  REPORT WEATHER SUCH AS PRECIPITATION OR FOG.

ILZ005-006-012>014-019>023-290900-
NORTHEAST ILLINOIS

CITY           SKY/WX    TMP DP  RH WIND       PRES   REMARKS
OHARE          PTCLDY    69  54  58 NE8       30.06R
MIDWAY         PTCLDY    69  48  47 NE10      30.05R
AURORA         CLEAR     61  59  93 NE5       30.06R
LANSING*       CLEAR     65  46  50 NE7       30.05R
JOLIET*        CLEAR     65  62  90 N3        30.05S
WAUKEGAN       PTCLDY    67  54  63 E6        30.07R
DUPAGE AIRPORT CLEAR     60  60 100 N6        30.05S
WHEELING       CLEAR     66  57  72 CALM      30.08R
MORRIS*        CLEAR     61  58  91 CALM      30.04R
NORTHERLY ISL    N/A     68  51  54 E16         N/A
$$

WIZ051-052-058>065-066-070>072-290900-
SOUTHEAST WISCONSIN

CITY           SKY/WX    TMP DP  RH WIND       PRES   REMARKS
MILWAUKEE      CLEAR     65  54  67 E7        30.08R
KENOSHA*       CLEAR     61  55  81 E6        30.08R
RACINE*        CLEAR     67  53  61 E9        30.10R
$$

INZ001>003-010>013-019-020-290900-
NORTHWEST INDIANA

CITY           SKY/WX    TMP DP  RH WIND       PRES   REMARKS
GARY*          CLEAR     67  49  52 NE9G16    30.06R
MICHIGAN CITY* NOT AVBL
RENSSELAER*    NOT AVBL
VALPARAISO     PTCLDY    55  49  80 NE5       30.05R
$$

LMZ740>746-290900-
SOUTHERN LAKE MICHIGAN

STATION/POSITION TIME  SKY/WX   TEMP WIND        PRES    VSBY
                                AIR  DIR/SP/G
                 (UTC)          (F)  (DEG/KT/KT) (MB)    (MI)
HARRISON CRIB    0740            70   80/ 19/ 20   N/A
BURNHAM HARBOR   0800            68                N/A
CALUMET HARBOR   0730            69   40/ 11/ 15 1017.0R
BURNS HARBOR     0740            66   80/ 16/ 19 1017.9R
MICHIGAN CITY    0740            63   60/ 11/ 13   N/A
$$

ABBREVIATIONS USED IN REMARKS
   TC - TEMPERATURE IN CELSIUS
  WCI - WIND CHILL INDEX
   HX - HEAT INDEX
  VSB - VISIBILITY
$$




USA.gov is the U.S. government's official web portal to all federal, state and local government web resources and services.